| time (UTC) | temp F | wind direction | speed MPH | gust MPH | rain 1hr in | rain 24hr in | rain mn in | humidity % | barometer mb |
| 20260831112503 | 68 | 190 | 0.0 | 1.0 | 0.00 | 0.02 | 0.00 | 86 | 1019.4 |
| 20260831112003 | 68 | 190 | 0.0 | 1.0 | 0.00 | 0.02 | 0.00 | 86 | 1019.3 |
| 20260831111503 | 68 | 190 | 0.0 | 1.0 | 0.00 | 0.02 | 0.00 | 86 | 1019.3 |
| 20260831111004 | 68 | 189 | 0.0 | 0.0 | 0.00 | 0.02 | 0.00 | 86 | 1019.2 |
| 20260831110504 | 68 | 189 | 0.0 | 0.0 | 0.00 | 0.02 | 0.00 | 86 | 1019.2 |
| 20260831110003 | 68 | 189 | 0.0 | 0.0 | 0.00 | 0.02 | 0.00 | 86 | 1019.1 |
| 20260831105503 | 68 | 189 | 0.0 | 0.0 | 0.00 | 0.02 | 0.00 | 86 | 1019.1 |
| 20260831105004 | 68 | 190 | 0.0 | 0.0 | 0.00 | 0.02 | 0.00 | 86 | 1019.1 |
| 20260831104503 | 68 | 190 | 0.0 | 0.0 | 0.00 | 0.02 | 0.00 | 86 | 1019.1 |
| 20260831103503 | 68 | 190 | 0.0 | 0.0 | 0.00 | 0.02 | 0.00 | 86 | 1018.9 |
| 20260831103004 | 68 | 190 | 0.0 | 0.0 | 0.00 | 0.02 | 0.00 | 86 | 1018.9 |
| 20260831102503 | 68 | 190 | 0.0 | 0.0 | 0.00 | 0.02 | 0.00 | 86 | 1018.8 |
| 20260831101004 | 68 | 190 | 0.0 | 0.0 | 0.00 | 0.02 | 0.00 | 86 | 1018.8 |
| 20260831100504 | 68 | 190 | 0.0 | 0.0 | 0.00 | 0.02 | 0.00 | 86 | 1018.7 |
| 20260831095503 | 68 | 189 | 0.0 | 1.0 | 0.00 | 0.02 | 0.00 | 86 | 1018.7 |
| 20260831095005 | 68 | 189 | 0.0 | 3.0 | 0.00 | 0.02 | 0.00 | 86 | 1018.6 |
| 20260831094505 | 69 | 190 | 0.0 | 0.0 | 0.00 | 0.02 | 0.00 | 86 | 1018.7 |
| 20260831094003 | 69 | 190 | 0.0 | 0.0 | 0.00 | 0.02 | 0.00 | 86 | 1018.6 |
| 20260831092503 | 69 | 188 | 0.0 | 0.0 | 0.00 | 0.02 | 0.00 | 86 | 1018.4 |
| 20260831092004 | 69 | 189 | 0.0 | 0.0 | 0.00 | 0.02 | 0.00 | 86 | 1018.4 |
| 20260831090503 | 69 | 190 | 0.0 | 1.0 | 0.00 | 0.02 | 0.00 | 86 | 1018.5 |
| 20260831090004 | 69 | 190 | 0.0 | 1.0 | 0.00 | 0.02 | 0.00 | 86 | 1018.4 |
| 20260831085503 | 69 | 191 | 0.0 | 1.0 | 0.00 | 0.02 | 0.00 | 86 | 1018.3 |
| 20260831085003 | 69 | 192 | 0.0 | 1.0 | 0.00 | 0.02 | 0.00 | 86 | 1018.4 |
| 20260831084004 | 70 | 191 | 0.0 | 1.0 | 0.00 | 0.02 | 0.00 | 86 | 1018.4 |
| 20260831083504 | 70 | 193 | 0.0 | 0.0 | 0.00 | 0.02 | 0.00 | 86 | 1018.5 |
| 20260831083004 | 70 | 193 | 0.0 | 0.0 | 0.00 | 0.02 | 0.00 | 87 | 1018.4 |
| 20260831082504 | 70 | 193 | 0.0 | 0.0 | 0.00 | 0.02 | 0.00 | 87 | 1018.4 |
| 20260831082004 | 70 | 194 | 0.0 | 0.0 | 0.00 | 0.02 | 0.00 | 87 | 1018.5 |
| 20260831081503 | 70 | 193 | 0.0 | 0.0 | 0.00 | 0.02 | 0.00 | 87 | 1018.4 |
| 20260831081005 | 70 | 193 | 0.0 | 0.0 | 0.00 | 0.02 | 0.00 | 87 | 1018.4 |
| 20260831080504 | 70 | 193 | 0.0 | 0.0 | 0.00 | 0.02 | 0.00 | 87 | 1018.3 |
| 20260831080004 | 70 | 193 | 0.0 | 0.0 | 0.00 | 0.02 | 0.00 | 86 | 1018.4 |
| 20260831075503 | 70 | 193 | 0.0 | 0.0 | 0.00 | 0.02 | 0.00 | 86 | 1018.4 |
| 20260831075003 | 70 | 194 | 0.0 | 0.0 | 0.00 | 0.02 | 0.00 | 86 | 1018.4 |
| 20260831074503 | 70 | 192 | 0.0 | 0.0 | 0.00 | 0.02 | 0.00 | 86 | 1018.3 |
| 20260831074004 | 70 | 192 | 0.0 | 0.0 | 0.00 | 0.02 | 0.00 | 86 | 1018.3 |
| 20260831073504 | 70 | 192 | 0.0 | 0.0 | 0.00 | 0.02 | 0.00 | 86 | 1018.4 |
| 20260831073004 | 70 | 192 | 0.0 | 0.0 | 0.00 | 0.02 | 0.00 | 86 | 1018.4 |
| 20260831072503 | 70 | 192 | 0.0 | 0.0 | 0.00 | 0.02 | 0.00 | 86 | 1018.3 |
| 20260831072003 | 70 | 192 | 0.0 | 0.0 | 0.00 | 0.02 | 0.00 | 86 | 1018.3 |
| 20260831071003 | 70 | 192 | 0.0 | 0.0 | 0.00 | 0.02 | 0.00 | 86 | 1018.3 |
| 20260831070004 | 70 | 192 | 0.0 | 0.0 | 0.00 | 0.02 | 0.00 | 86 | 1018.4 |
| 20260831065504 | 70 | 192 | 0.0 | 0.0 | 0.00 | 0.02 | 0.00 | 86 | 1018.3 |
| 20260831065003 | 71 | 192 | 0.0 | 0.0 | 0.00 | 0.02 | 0.00 | 86 | 1018.3 |
| 20260831064003 | 71 | 193 | 0.0 | 0.0 | 0.00 | 0.02 | 0.00 | 86 | 1018.2 |
| 20260831063503 | 71 | 193 | 0.0 | 0.0 | 0.00 | 0.02 | 0.00 | 86 | 1018.3 |
| 20260831063003 | 71 | 193 | 0.0 | 0.0 | 0.00 | 0.02 | 0.00 | 86 | 1018.3 |
| 20260831062504 | 71 | 182 | 0.0 | 0.0 | 0.00 | 0.02 | 0.00 | 86 | 1018.4 |
| 20260831062004 | 71 | 182 | 0.0 | 0.0 | 0.00 | 0.02 | 0.00 | 86 | 1018.4 |
| 20260831061503 | 71 | 182 | 0.0 | 0.0 | 0.00 | 0.02 | 0.00 | 86 | 1018.3 |
| 20260831061004 | 71 | 182 | 0.0 | 0.0 | 0.00 | 0.02 | 0.00 | 86 | 1018.3 |
| 20260831060504 | 71 | 182 | 0.0 | 0.0 | 0.00 | 0.02 | 0.00 | 86 | 1018.3 |
| 20260831060004 | 71 | 182 | 0.0 | 0.0 | 0.00 | 0.02 | 0.00 | 86 | 1018.2 |
| 20260831055504 | 71 | 182 | 0.0 | 0.0 | 0.00 | 0.02 | 0.00 | 86 | 1018.2 |
| 20260831055003 | 71 | 182 | 0.0 | 0.0 | 0.00 | 0.02 | 0.00 | 86 | 1018.2 |
| 20260831054504 | 71 | 182 | 0.0 | 0.0 | 0.00 | 0.02 | 0.00 | 86 | 1018.2 |
| 20260831054003 | 71 | 182 | 0.0 | 0.0 | 0.00 | 0.02 | 0.00 | 86 | 1018.2 |
| 20260831053503 | 71 | 182 | 0.0 | 0.0 | 0.00 | 0.02 | 0.00 | 85 | 1018.1 |
| 20260831053004 | 71 | 182 | 0.0 | 0.0 | 0.00 | 0.02 | 0.00 | 85 | 1018.1 |
| 20260831052503 | 71 | 182 | 0.0 | 0.0 | 0.00 | 0.02 | 0.00 | 84 | 1018.0 |
| 20260831051503 | 71 | 182 | 0.0 | 0.0 | 0.00 | 0.02 | 0.00 | 84 | 1018.3 |
| 20260831051004 | 71 | 182 | 0.0 | 0.0 | 0.00 | 0.02 | 0.00 | 84 | 1018.2 |
| 20260831050503 | 71 | 182 | 0.0 | 0.0 | 0.00 | 0.02 | 0.00 | 84 | 1018.2 |
| 20260831050004 | 71 | 182 | 0.0 | 0.0 | 0.00 | 0.02 | 0.00 | 84 | 1018.1 |
| 20260831045504 | 71 | 182 | 0.0 | 0.0 | 0.00 | 0.02 | 0.00 | 84 | 1018.0 |
| 20260831045003 | 71 | 182 | 0.0 | 0.0 | 0.00 | 0.02 | 0.00 | 84 | 1018.1 |
| 20260831044004 | 72 | 182 | 0.0 | 0.0 | 0.00 | 0.02 | 0.00 | 84 | 1018.0 |
| 20260831043504 | 72 | 182 | 0.0 | 0.0 | 0.00 | 0.02 | 0.00 | 84 | 1017.9 |
| 20260831042503 | 72 | 182 | 0.0 | 0.0 | 0.00 | 0.02 | 0.00 | 84 | 1017.8 |
| 20260831041503 | 72 | 182 | 0.0 | 0.0 | 0.00 | 0.02 | 0.00 | 83 | 1017.8 |
| 20260831041004 | 72 | 182 | 0.0 | 0.0 | 0.00 | 0.02 | 0.00 | 83 | 1017.8 |
| 20260831040505 | 72 | 194 | 0.0 | 0.0 | 0.00 | 0.02 | 0.00 | 83 | 1017.9 |
| 20260831040003 | 72 | 194 | 0.0 | 0.0 | 0.00 | 0.02 | 0.00 | 83 | 1018.0 |
| 20260831035503 | 72 | 194 | 0.0 | 0.0 | 0.00 | 0.02 | 0.02 | 83 | 1018.0 |
| 20260831035004 | 72 | 194 | 0.0 | 0.0 | 0.00 | 0.02 | 0.02 | 83 | 1017.9 |
| 20260831034503 | 72 | 194 | 0.0 | 0.0 | 0.00 | 0.02 | 0.02 | 82 | 1017.9 |
| 20260831033004 | 73 | 196 | 0.0 | 0.0 | 0.00 | 0.02 | 0.02 | 81 | 1018.0 |
| 20260831032504 | 73 | 196 | 0.0 | 0.0 | 0.00 | 0.02 | 0.02 | 81 | 1018.0 |
| 20260831031504 | 73 | 196 | 0.0 | 0.0 | 0.00 | 0.02 | 0.02 | 79 | 1018.1 |
| 20260831031004 | 73 | 196 | 0.0 | 0.0 | 0.00 | 0.02 | 0.02 | 79 | 1018.1 |
| 20260831030504 | 73 | 196 | 0.0 | 0.0 | 0.00 | 0.02 | 0.02 | 79 | 1018.3 |
| 20260831030004 | 73 | 196 | 0.0 | 0.0 | 0.01 | 0.02 | 0.02 | 79 | 1018.3 |
| 20260831025004 | 73 | 188 | 0.0 | 0.0 | 0.01 | 0.02 | 0.02 | 79 | 1018.4 |
| 20260831024504 | 73 | 187 | 0.0 | 0.0 | 0.02 | 0.02 | 0.02 | 78 | 1018.5 |
| 20260831024004 | 74 | 187 | 0.0 | 0.0 | 0.02 | 0.02 | 0.02 | 78 | 1018.5 |
| 20260831023503 | 74 | 188 | 0.0 | 0.0 | 0.02 | 0.02 | 0.02 | 79 | 1018.5 |
| 20260831023003 | 74 | 188 | 0.0 | 0.0 | 0.02 | 0.02 | 0.02 | 79 | 1018.5 |
| 20260831022504 | 74 | 188 | 0.0 | 0.0 | 0.02 | 0.02 | 0.02 | 78 | 1018.5 |
| 20260831022003 | 74 | 188 | 0.0 | 0.0 | 0.02 | 0.02 | 0.02 | 78 | 1018.5 |
| 20260831021504 | 74 | 188 | 0.0 | 0.0 | 0.02 | 0.02 | 0.02 | 78 | 1018.5 |
| 20260831021003 | 74 | 187 | 0.0 | 0.0 | 0.02 | 0.02 | 0.02 | 77 | 1018.4 |
| 20260831020003 | 74 | 188 | 0.0 | 0.0 | 0.01 | 0.01 | 0.01 | 76 | 1018.5 |
| 20260831015503 | 74 | 187 | 0.0 | 0.0 | 0.01 | 0.01 | 0.01 | 76 | 1018.6 |
| 20260831015004 | 74 | 186 | 0.0 | 0.0 | 0.01 | 0.01 | 0.01 | 75 | 1018.5 |
| 20260831014504 | 74 | 186 | 0.0 | 0.0 | 0.00 | 0.00 | 0.00 | 75 | 1018.5 |
| 20260831014003 | 75 | 186 | 0.0 | 0.0 | 0.00 | 0.00 | 0.00 | 75 | 1018.5 |
| 20260831013504 | 75 | 186 | 0.0 | 2.0 | 0.00 | 0.00 | 0.00 | 75 | 1018.5 |
| 20260831013003 | 75 | 186 | 2.0 | 2.0 | 0.00 | 0.00 | 0.00 | 74 | 1018.4 |
| 20260831012503 | 75 | 186 | 2.0 | 3.0 | 0.00 | 0.00 | 0.00 | 74 | 1018.3 |
| 20260831012004 | 75 | 186 | 1.0 | 2.0 | 0.00 | 0.00 | 0.00 | 73 | 1018.3 |
| 20260831011505 | 75 | 186 | 2.0 | 3.0 | 0.00 | 0.00 | 0.00 | 73 | 1018.3 |
| 20260831011005 | 75 | 186 | 2.0 | 3.0 | 0.00 | 0.00 | 0.00 | 73 | 1018.2 |
| 20260831010504 | 75 | 186 | 2.0 | 3.0 | 0.00 | 0.00 | 0.00 | 72 | 1018.2 |
| 20260831010004 | 75 | 186 | 0.0 | 2.0 | 0.00 | 0.00 | 0.00 | 72 | 1018.2 |
| 20260831005504 | 75 | 186 | 1.0 | 3.0 | 0.00 | 0.00 | 0.00 | 72 | 1018.1 |
| 20260831005003 | 75 | 186 | 0.0 | 2.0 | 0.00 | 0.00 | 0.00 | 71 | 1018.1 |
| 20260831004026 | 75 | 187 | 1.0 | 3.0 | 0.00 | 0.00 | 0.00 | 71 | 1018.0 |
| 20260831003517 | 75 | 187 | 2.0 | 3.0 | 0.00 | 0.00 | 0.00 | 71 | 1017.8 |
| 20260831003004 | 75 | 185 | 0.0 | 3.0 | 0.00 | 0.00 | 0.00 | 70 | 1017.8 |
| 20260831002515 | 75 | 187 | 2.0 | 3.0 | 0.00 | 0.00 | 0.00 | 70 | 1017.8 |
| 20260831001503 | 75 | 187 | 2.0 | 3.0 | 0.00 | 0.00 | 0.00 | 70 | 1017.7 |
| 20260831001003 | 75 | 187 | 1.0 | 3.0 | 0.00 | 0.00 | 0.00 | 70 | 1017.7 |
| 20260831000504 | 75 | 189 | 1.0 | 2.0 | 0.00 | 0.00 | 0.00 | 70 | 1017.6 |
| 20260830235504 | 75 | 186 | 0.0 | 3.0 | 0.00 | 0.00 | 0.00 | 69 | 1017.5 |
| 20260830235004 | 75 | 177 | 1.0 | 2.0 | 0.00 | 0.00 | 0.00 | 69 | 1017.5 |
| 20260830234004 | 76 | 186 | 0.0 | 2.0 | 0.00 | 0.00 | 0.00 | 69 | 1017.5 |
| 20260830233003 | 76 | 185 | 0.0 | 3.0 | 0.00 | 0.00 | 0.00 | 69 | 1017.3 |
| 20260830232504 | 76 | 186 | 0.0 | 3.0 | 0.00 | 0.00 | 0.00 | 68 | 1017.3 |
| 20260830232004 | 76 | 185 | 1.0 | 3.0 | 0.00 | 0.00 | 0.00 | 68 | 1017.4 |
| 20260830231504 | 76 | 187 | 1.0 | 3.0 | 0.00 | 0.00 | 0.00 | 68 | 1017.4 |
| 20260830231004 | 76 | 184 | 1.0 | 3.0 | 0.00 | 0.00 | 0.00 | 68 | 1017.4 |
| 20260830230504 | 76 | 191 | 1.0 | 3.0 | 0.00 | 0.00 | 0.00 | 68 | 1017.4 |
| 20260830225003 | 76 | 192 | 2.0 | 3.0 | 0.00 | 0.00 | 0.00 | 67 | 1017.3 |
| 20260830224504 | 76 | 198 | 1.0 | 2.0 | 0.00 | 0.00 | 0.00 | 67 | 1017.3 |
| 20260830223503 | 77 | 225 | 1.0 | 3.0 | 0.00 | 0.00 | 0.00 | 67 | 1017.5 |
| 20260830223003 | 77 | 236 | 1.0 | 2.0 | 0.00 | 0.00 | 0.00 | 67 | 1017.6 |
| 20260830222503 | 77 | 218 | 1.0 | 3.0 | 0.00 | 0.00 | 0.00 | 67 | 1017.5 |
| 20260830222003 | 77 | 230 | 2.0 | 3.0 | 0.00 | 0.00 | 0.00 | 66 | 1017.7 |
| 20260830221503 | 77 | 227 | 1.0 | 5.0 | 0.00 | 0.00 | 0.00 | 66 | 1017.7 |
| 20260830221003 | 77 | 218 | 1.0 | 3.0 | 0.00 | 0.00 | 0.00 | 66 | 1017.8 |
| 20260830220504 | 77 | 213 | 1.0 | 3.0 | 0.00 | 0.00 | 0.00 | 66 | 1017.7 |
| 20260830220005 | 77 | 186 | 2.0 | 3.0 | 0.00 | 0.00 | 0.00 | 66 | 1017.7 |
| 20260830215004 | 77 | 199 | 2.0 | 5.0 | 0.00 | 0.00 | 0.00 | 66 | 1017.5 |
| 20260830214503 | 78 | 231 | 1.0 | 5.0 | 0.00 | 0.00 | 0.00 | 65 | 1017.5 |
| 20260830214004 | 78 | 180 | 1.0 | 5.0 | 0.00 | 0.00 | 0.00 | 65 | 1017.6 |
| 20260830213004 | 78 | 219 | 1.0 | 5.0 | 0.00 | 0.00 | 0.00 | 65 | 1017.5 |
| 20260830212503 | 78 | 198 | 2.0 | 5.0 | 0.00 | 0.00 | 0.00 | 65 | 1017.5 |
| 20260830212004 | 78 | 172 | 1.0 | 5.0 | 0.00 | 0.00 | 0.00 | 65 | 1017.7 |
| 20260830211504 | 78 | 203 | 1.0 | 5.0 | 0.00 | 0.00 | 0.00 | 65 | 1017.7 |
| 20260830211004 | 78 | 223 | 1.0 | 5.0 | 0.00 | 0.00 | 0.00 | 65 | 1017.8 |
| 20260830210504 | 78 | 262 | 3.0 | 8.0 | 0.00 | 0.00 | 0.00 | 65 | 1017.7 |
| 20260830210004 | 77 | 215 | 3.0 | 6.0 | 0.00 | 0.00 | 0.00 | 65 | 1017.9 |
| 20260830205504 | 78 | 229 | 3.0 | 8.0 | 0.00 | 0.00 | 0.00 | 64 | 1017.9 |
| 20260830204504 | 78 | 220 | 6.0 | 9.0 | 0.00 | 0.00 | 0.00 | 63 | 1017.8 |
| 20260830204003 | 78 | 236 | 3.0 | 8.0 | 0.00 | 0.00 | 0.00 | 63 | 1017.9 |
| 20260830203504 | 78 | 234 | 3.0 | 9.0 | 0.00 | 0.00 | 0.00 | 63 | 1018.0 |
| 20260830203003 | 78 | 248 | 3.0 | 8.0 | 0.00 | 0.00 | 0.00 | 63 | 1018.1 |
| 20260830202504 | 78 | 235 | 4.0 | 10.0 | 0.00 | 0.00 | 0.00 | 63 | 1018.0 |
| 20260830202003 | 78 | 236 | 3.0 | 8.0 | 0.00 | 0.00 | 0.00 | 63 | 1018.1 |
| 20260830201503 | 78 | 219 | 3.0 | 6.0 | 0.00 | 0.00 | 0.00 | 63 | 1018.1 |
| 20260830201004 | 79 | 250 | 2.0 | 5.0 | 0.00 | 0.00 | 0.00 | 62 | 1018.2 |
| 20260830200504 | 79 | 180 | 2.0 | 5.0 | 0.00 | 0.00 | 0.00 | 63 | 1018.2 |
| 20260830200004 | 79 | 143 | 2.0 | 3.0 | 0.00 | 0.00 | 0.00 | 63 | 1018.2 |
| 20260830195503 | 79 | 249 | 2.0 | 6.0 | 0.00 | 0.00 | 0.00 | 62 | 1018.2 |
| 20260830195003 | 79 | 215 | 2.0 | 5.0 | 0.00 | 0.00 | 0.00 | 63 | 1018.2 |
| 20260830194503 | 78 | 240 | 3.0 | 7.0 | 0.00 | 0.00 | 0.00 | 63 | 1018.3 |
| 20260830194004 | 78 | 223 | 2.0 | 5.0 | 0.00 | 0.00 | 0.00 | 62 | 1018.4 |
| 20260830193504 | 78 | 137 | 1.0 | 3.0 | 0.00 | 0.00 | 0.00 | 63 | 1018.4 |
| 20260830193003 | 78 | 208 | 3.0 | 7.0 | 0.00 | 0.00 | 0.00 | 62 | 1018.5 |
| 20260830192503 | 78 | 259 | 2.0 | 5.0 | 0.00 | 0.00 | 0.00 | 62 | 1018.6 |
| 20260830192003 | 78 | 236 | 4.0 | 7.0 | 0.00 | 0.00 | 0.00 | 61 | 1018.6 |
| 20260830191503 | 78 | 214 | 3.0 | 5.0 | 0.00 | 0.00 | 0.00 | 62 | 1018.7 |
| 20260830191003 | 78 | 214 | 3.0 | 6.0 | 0.00 | 0.00 | 0.00 | 61 | 1018.8 |
| 20260830190504 | 79 | 216 | 3.0 | 3.0 | 0.00 | 0.00 | 0.00 | 61 | 1018.9 |
| 20260830190003 | 79 | 209 | 2.0 | 5.0 | 0.00 | 0.00 | 0.00 | 61 | 1019.1 |
| 20260830185503 | 79 | 234 | 2.0 | 5.0 | 0.00 | 0.00 | 0.00 | 61 | 1019.0 |
| 20260830185004 | 79 | 231 | 2.0 | 5.0 | 0.00 | 0.00 | 0.00 | 61 | 1019.0 |
| 20260830184503 | 79 | 227 | 2.0 | 3.0 | 0.00 | 0.00 | 0.00 | 61 | 1019.0 |
| 20260830184004 | 79 | 249 | 2.0 | 6.0 | 0.00 | 0.00 | 0.00 | 61 | 1019.2 |
| 20260830183504 | 79 | 206 | 2.0 | 3.0 | 0.00 | 0.00 | 0.00 | 61 | 1019.2 |
| 20260830183004 | 79 | 235 | 2.0 | 5.0 | 0.00 | 0.00 | 0.00 | 60 | 1019.3 |
| 20260830182503 | 79 | 227 | 1.0 | 5.0 | 0.00 | 0.00 | 0.00 | 59 | 1019.4 |
| 20260830182003 | 80 | 259 | 2.0 | 6.0 | 0.00 | 0.00 | 0.00 | 58 | 1019.4 |
| 20260830181503 | 80 | 212 | 2.0 | 5.0 | 0.00 | 0.00 | 0.00 | 58 | 1019.5 |
| 20260830181003 | 80 | 207 | 3.0 | 10.0 | 0.00 | 0.00 | 0.00 | 58 | 1019.5 |
| 20260830180004 | 81 | 224 | 3.0 | 7.0 | 0.00 | 0.00 | 0.00 | 57 | 1019.6 |
| 20260830175503 | 81 | 210 | 2.0 | 5.0 | 0.00 | 0.00 | 0.00 | 56 | 1019.6 |
| 20260830175004 | 81 | 235 | 1.0 | 5.0 | 0.00 | 0.00 | 0.00 | 55 | 1019.6 |
| 20260830174503 | 81 | 250 | 1.0 | 5.0 | 0.00 | 0.00 | 0.00 | 54 | 1019.5 |
| 20260830174003 | 82 | 197 | 2.0 | 5.0 | 0.00 | 0.00 | 0.00 | 54 | 1019.5 |
| 20260830173004 | 81 | 212 | 3.0 | 6.0 | 0.00 | 0.00 | 0.00 | 54 | 1019.5 |
| 20260830172505 | 81 | 234 | 2.0 | 5.0 | 0.00 | 0.00 | 0.00 | 53 | 1019.6 |
| 20260830172005 | 81 | 242 | 2.0 | 5.0 | 0.00 | 0.00 | 0.00 | 55 | 1019.6 |
| 20260830171503 | 81 | 225 | 2.0 | 5.0 | 0.00 | 0.00 | 0.00 | 54 | 1019.7 |
| 20260830171003 | 81 | 236 | 2.0 | 3.0 | 0.00 | 0.00 | 0.00 | 52 | 1019.7 |
| 20260830170503 | 81 | 267 | 2.0 | 6.0 | 0.00 | 0.00 | 0.00 | 55 | 1019.8 |
| 20260830170004 | 80 | 238 | 2.0 | 5.0 | 0.00 | 0.00 | 0.00 | 55 | 1019.9 |
| 20260830165503 | 80 | 226 | 2.0 | 5.0 | 0.00 | 0.00 | 0.00 | 54 | 1020.0 |
| 20260830165004 | 80 | 222 | 2.0 | 5.0 | 0.00 | 0.00 | 0.00 | 55 | 1020.1 |
| 20260830164504 | 80 | 251 | 2.0 | 3.0 | 0.00 | 0.00 | 0.00 | 54 | 1020.1 |
| 20260830164004 | 80 | 186 | 1.0 | 3.0 | 0.00 | 0.00 | 0.00 | 53 | 1020.1 |
| 20260830163004 | 80 | 185 | 2.0 | 3.0 | 0.00 | 0.00 | 0.00 | 52 | 1020.3 |
| 20260830162503 | 80 | 205 | 3.0 | 6.0 | 0.00 | 0.00 | 0.00 | 51 | 1020.4 |
| 20260830162003 | 80 | 250 | 3.0 | 6.0 | 0.00 | 0.00 | 0.00 | 51 | 1020.4 |
| 20260830161503 | 80 | 307 | 2.0 | 5.0 | 0.00 | 0.00 | 0.00 | 51 | 1020.4 |
| 20260830160504 | 80 | 239 | 3.0 | 5.0 | 0.00 | 0.00 | 0.00 | 49 | 1020.4 |
| 20260830160003 | 80 | 262 | 3.0 | 6.0 | 0.00 | 0.00 | 0.00 | 49 | 1020.3 |
| 20260830155503 | 80 | 215 | 1.0 | 3.0 | 0.00 | 0.00 | 0.00 | 49 | 1020.4 |
| 20260830155003 | 80 | 248 | 2.0 | 8.0 | 0.00 | 0.00 | 0.00 | 48 | 1020.4 |
| 20260830154003 | 79 | 229 | 1.0 | 5.0 | 0.00 | 0.00 | 0.00 | 51 | 1020.6 |
| 20260830153503 | 79 | 243 | 1.0 | 3.0 | 0.00 | 0.00 | 0.00 | 51 | 1020.8 |
| 20260830153003 | 78 | 206 | 3.0 | 7.0 | 0.00 | 0.00 | 0.00 | 50 | 1020.9 |
| 20260830152502 | 78 | 248 | 3.0 | 6.0 | 0.00 | 0.00 | 0.00 | 50 | 1021.0 |
| 20260830151503 | 78 | 295 | 1.0 | 5.0 | 0.00 | 0.00 | 0.00 | 52 | 1021.0 |
| 20260830151003 | 77 | 252 | 2.0 | 5.0 | 0.00 | 0.00 | 0.00 | 53 | 1021.0 |
| 20260830150502 | 77 | 229 | 1.0 | 3.0 | 0.00 | 0.00 | 0.00 | 54 | 1021.0 |
| 20260830150003 | 77 | 229 | 2.0 | 5.0 | 0.00 | 0.00 | 0.00 | 53 | 1021.0 |
| 20260830145504 | 76 | 245 | 0.0 | 3.0 | 0.00 | 0.00 | 0.00 | 56 | 1021.1 |
| 20260830145003 | 76 | 264 | 0.0 | 2.0 | 0.00 | 0.00 | 0.00 | 56 | 1021.1 |
| 20260830144003 | 75 | 261 | 1.0 | 3.0 | 0.00 | 0.00 | 0.00 | 58 | 1021.2 |
| 20260830143503 | 75 | 264 | 2.0 | 7.0 | 0.00 | 0.00 | 0.00 | 57 | 1021.1 |
| 20260830143002 | 75 | 238 | 3.0 | 7.0 | 0.00 | 0.00 | 0.00 | 58 | 1021.2 |
| 20260830142502 | 74 | 225 | 2.0 | 3.0 | 0.00 | 0.00 | 0.00 | 60 | 1021.2 |
| 20260830142003 | 74 | 223 | 2.0 | 3.0 | 0.00 | 0.00 | 0.00 | 60 | 1021.3 |
| 20260830141502 | 74 | 238 | 3.0 | 7.0 | 0.00 | 0.00 | 0.00 | 59 | 1021.4 |
| 20260830141003 | 73 | 240 | 2.0 | 6.0 | 0.00 | 0.00 | 0.00 | 60 | 1021.5 |
| 20260830140502 | 73 | 235 | 2.0 | 7.0 | 0.00 | 0.00 | 0.00 | 60 | 1021.5 |
| 20260830140003 | 73 | 233 | 3.0 | 7.0 | 0.00 | 0.00 | 0.00 | 61 | 1021.8 |
| 20260830135003 | 72 | 267 | 2.0 | 5.0 | 0.00 | 0.00 | 0.00 | 62 | 1021.8 |
| 20260830134502 | 71 | 241 | 3.0 | 5.0 | 0.00 | 0.00 | 0.00 | 63 | 1021.8 |
| 20260830134002 | 71 | 231 | 3.0 | 6.0 | 0.00 | 0.00 | 0.00 | 64 | 1021.8 |
| 20260830133502 | 71 | 231 | 2.0 | 6.0 | 0.00 | 0.00 | 0.00 | 64 | 1021.8 |
| 20260830133003 | 70 | 198 | 2.0 | 6.0 | 0.00 | 0.00 | 0.00 | 64 | 1021.9 |
| 20260830132003 | 69 | 200 | 1.0 | 5.0 | 0.00 | 0.00 | 0.00 | 65 | 1022.0 |
| 20260830131504 | 69 | 235 | 1.0 | 2.0 | 0.00 | 0.00 | 0.00 | 66 | 1022.0 |
| 20260830131003 | 69 | 185 | 1.0 | 3.0 | 0.00 | 0.00 | 0.00 | 66 | 1021.9 |
| 20260830130503 | 68 | 186 | 0.0 | 0.0 | 0.00 | 0.00 | 0.00 | 68 | 1021.9 |
| 20260830130003 | 68 | 188 | 0.0 | 0.0 | 0.00 | 0.00 | 0.00 | 69 | 1022.0 |
| 20260830125503 | 68 | 186 | 0.0 | 0.0 | 0.00 | 0.00 | 0.00 | 69 | 1022.0 |
| 20260830124503 | 68 | 186 | 0.0 | 0.0 | 0.00 | 0.00 | 0.00 | 70 | 1022.2 |
| 20260830124002 | 67 | 186 | 0.0 | 0.0 | 0.00 | 0.00 | 0.00 | 70 | 1022.2 |
| 20260830123502 | 67 | 186 | 0.0 | 0.0 | 0.00 | 0.00 | 0.00 | 71 | 1022.3 |
| 20260830123003 | 67 | 186 | 0.0 | 0.0 | 0.00 | 0.00 | 0.00 | 71 | 1022.2 |
| 20260830122502 | 67 | 182 | 0.0 | 0.0 | 0.00 | 0.00 | 0.00 | 71 | 1022.3 |
| 20260830122003 | 67 | 182 | 0.0 | 0.0 | 0.00 | 0.00 | 0.00 | 70 | 1022.3 |
| 20260830121003 | 66 | 186 | 0.0 | 0.0 | 0.00 | 0.00 | 0.00 | 71 | 1022.1 |
| 20260830120003 | 66 | 186 | 0.0 | 0.0 | 0.00 | 0.00 | 0.00 | 71 | 1022.1 |
| 20260830115504 | 66 | 186 | 0.0 | 0.0 | 0.00 | 0.00 | 0.00 | 71 | 1022.1 |
| 20260830115003 | 66 | 186 | 0.0 | 0.0 | 0.00 | 0.00 | 0.00 | 71 | 1022.2 |
| 20260830114504 | 66 | 186 | 0.0 | 0.0 | 0.00 | 0.00 | 0.00 | 71 | 1022.3 |
| 20260830113503 | 66 | 186 | 0.0 | 0.0 | 0.00 | 0.00 | 0.00 | 70 | 1022.2 |
| 20260830113003 | 65 | 186 | 0.0 | 0.0 | 0.00 | 0.00 | 0.00 | 70 | 1022.2 |